Temp
18 17 17 17 17 17 18 18 18 18 18 18 18 18 18 18 18 18 18 19 18 18 18 19 19 18 19 18 19 19 19 19 20 20 21 21 20 20 20 20 20 20 19
17 16 16 16 16 17 17 17 18 18 18 18 18 18 17 17 17 17 17 18 18 18 18 18 18 19 19 18 19 19 19 19 19 19 21 21 21 20 20 20 20 20 20
17 16 16 15 16 17 16 16 17 17 18 18 17 18 17 17 17 17 16 17 17 17 17 18 17 18 18 18 18 19 19 19 19 19 20 20 21 21 20 20 20 20 20
17 16 15 14 14 15 16 16 16 16 16 16 16 16 16 15 15 15 15 16 16 15 16 16 16 16 16 17 17 18 18 19 19 20 20 20 20 21 20 19 19 20 20
16 15 14 14 14 14 14 14 14 14 14 15 15 14 14 14 14 14 14 14 15 15 14 15 15 14 17 17 16 17 17 17 18 19 19 20 20 20 20 19 19 19 19
15 15 14 13 13 13 13 13 13 13 13 13 13 13 13 13 13 13 13 13 13 13 13 13 14 15 17 17 17 17 18 18 18 18 18 19 19 20 19 19 20 19 19
15 14 14 13 13 13 13 13 12 12 12 12 12 12 12 12 12 12 12 12 12 12 13 13 14 16 16 16 16 17 17 17 17 18 18 18 19 19 19 19 19 19 19
14 14 14 12 12 13 13 13 12 12 12 12 12 12 12 13 14 14 14 13 13 14 13 13 14 15 16 16 17 17 17 17 17 18 18 18 19 19 19 18 18 18 18
15 14 13 14 15 16 16 15 15 14 14 14 15 14 14 14 14 14 14 14 15 15 15 15 16 16 16 15 16 16 17 17 17 17 17 17 18 18 18 18 18 18 17
14 14 13 14 15 15 15 15 14 14 14 14 13 12 11 10 11 13 14 14 14 14 14 14 15 15 15 13 13 13 14 15 16 16 16 17 17 18 18 18 17 17 17
14 14 13 13 13 13 14 14 14 13 12 12 11 11 11 12 12 12 12 12 11 11 10 10 10 10 11 13 12 12 13 13 15 15 16 16 16 16 16 17 17 17 17
14 14 13 13 13 13 12 13 12 12 11 12 13 13 12 12 12 11 11 11 12 11 11 10 10 10 11 11 11 11 11 12 13 13 13 14 15 15 15 15 15 16 16
15 14 13 13 13 13 12 12 12 13 13 13 13 12 12 12 11 11 12 12 12 12 12 12 11 11 10 10 10 10 10 10 10 11 12 13 13 13 14 14 14 14 15
15 14 13 13 12 12 12 12 12 12 12 12 13 13 11 11 11 12 12 11 11 11 11 11 10 10 10 9 9 9 9 10 10 10 11 11 12 11 12 13 13 14 14
16 15 14 13 12 12 12 11 11 11 11 11 11 12 11 11 11 11 11 11 10 10 10 9 9 8 8 8 9 9 10 10 11 11 11 11 11 11 11 12 12 13 13
17 16 14 13 12 11 11 11 11 11 10 10 10 11 11 11 10 10 11 10 9 9 9 7 6 6 7 7 7 8 9 9 9 10 11 11 11 10 10 11 12 12 12
17 16 14 12 11 11 11 10 10 10 10 10 10 10 10 10 10 10 10 9 8 8 7 7 7 7 6 6 6 7 7 8 8 9 9 9 9 10 10 10 11 11 12
17 15 13 12 11 11 10 10 10 10 10 9 9 9 9 10 10 9 9 9 9 8 7 6 5 5 5 5 5 6 6 7 8 9 8 8 8 9 9 9 9 10 10
17 14 13 12 11 10 10 10 9 9 8 8 8 7 7 9 9 9 9 8 7 6 6 5 4 4 4 4 4 5 6 7 8 8 9 9 9 9 9 10 10 10 10
16 14 12 11 10 10 9 9 8 8 7 7 8 7 7 8 8 7 7 7 6 6 5 4 3 3 3 3 4 4 6 8 9 9 9 9 10 10 9 10 10 10 10
16 14 12 10 10 9 9 8 7 7 6 7 7 6 7 7 7 6 7 7 6 6 5 3 3 2 3 3 3 4 5 9 9 8 8 8 9 9 10 9 10 10 10
15 13 12 10 9 9 8 8 7 7 6 7 6 6 6 6 6 6 7 7 6 5 4 3 2 2 2 3 3 2 1 6 8 9 9 10 9 9 9 9 9 9 9
13 13 11 10 9 9 8 8 8 7 7 6 5 5 5 5 5 6 6 6 5 4 3 2 2 1 1 1 2 2 0 1 2 7 7 7 7 7 8 8 8 8 8
13 12 11 10 9 9 8 8 8 7 5 6 6 6 5 5 5 6 6 6 4 2 1 1 1 1 0 -0 0 2 2 2 -0 1 6 5 5 6 6 6 6 7 7
13 12 11 10 9 8 8 8 8 7 7 7 6 5 4 4 4 5 5 5 3 2 1 0 -0 -1 -1 -1 -1 -0 0 0 1 0 1 2 3 3 3 4 4 4 5
12 11 10 10 9 9 8 7 7 7 7 7 6 5 4 3 3 4 4 4 2 1 0 -1 -1 -1 -2 -2 -2 -2 -1 -1 -1 -1 -1 -0 -0 1 1 2 2 3 3
Height
823 821 823 825 827 828 829 829 830 831 831 832 832 831 831 831 832 833 833 833 834 834 834 834 834 834 834 834 833 833 832 832 831 830 830 831 831 831 831 832 832 832 834
821 821 822 824 826 827 828 830 830 831 832 833 833 833 833 833 832 832 833 833 834 834 834 835 835 835 834 833 833 833 832 832 831 831 830 830 830 830 831 831 831 832 833
821 822 822 823 824 826 828 830 831 832 833 834 833 833 834 834 833 834 833 833 833 833 834 835 834 834 833 832 832 832 832 831 831 831 831 830 830 830 831 830 831 831 832
820 820 821 823 824 826 826 827 829 831 832 833 833 833 833 834 833 833 833 833 833 833 833 834 833 832 832 832 832 832 831 830 830 830 830 830 831 831 830 830 830 831 831
819 819 821 822 823 823 824 826 828 829 830 831 832 832 833 834 833 833 833 833 832 832 831 831 831 829 830 830 830 830 830 830 829 829 830 830 830 830 830 829 829 829 830
818 819 820 821 822 823 824 826 828 829 829 830 831 831 832 833 833 833 833 833 832 831 831 830 829 828 828 828 828 828 827 827 828 828 829 829 829 830 828 828 829 829 829
816 818 819 821 822 823 824 826 827 828 828 830 830 831 832 831 832 832 832 832 831 831 830 829 828 827 827 826 826 826 825 825 825 826 826 827 828 828 828 827 827 827 827
813 815 817 819 821 821 823 825 826 827 828 829 830 830 830 831 831 831 831 831 830 829 829 828 827 826 825 824 824 823 822 821 822 822 823 823 825 826 826 826 826 826 826
812 814 815 817 818 820 822 824 825 826 827 828 829 830 831 831 832 832 832 831 830 829 829 828 826 825 824 823 822 821 819 819 819 819 820 819 821 822 823 823 823 823 824
810 812 814 814 816 818 820 822 823 824 825 827 828 829 830 832 832 831 831 831 830 829 829 827 826 826 825 824 822 820 819 818 818 817 817 817 818 817 820 820 820 821 821
807 809 810 812 815 816 818 819 821 822 824 826 827 828 829 831 832 831 831 830 829 829 829 829 827 827 825 823 822 820 819 818 817 815 815 815 815 815 815 816 817 817 818
803 805 807 809 812 814 817 819 819 821 822 823 825 827 829 830 831 831 830 830 829 828 828 827 827 826 824 823 821 820 819 817 815 814 814 814 813 812 812 813 813 813 813
797 801 803 806 810 812 815 816 818 819 821 822 823 826 827 828 829 829 828 828 828 827 826 826 825 825 823 821 820 819 818 817 815 813 813 812 811 810 810 810 810 810 810
790 794 797 801 804 808 811 813 815 816 819 820 822 823 825 826 826 826 827 827 827 826 826 825 824 824 823 822 821 819 817 814 812 811 809 808 807 808 808 806 806 807 807
783 786 790 796 800 804 807 810 812 814 817 818 820 821 823 823 824 826 825 826 826 826 826 825 824 823 823 821 819 818 815 812 810 807 806 805 803 802 802 802 802 803 804
776 780 784 790 795 799 803 806 808 811 814 816 817 819 821 822 823 824 823 824 825 826 825 825 825 824 822 821 818 817 815 812 808 806 802 799 799 797 798 798 799 799 798
768 774 778 784 790 794 798 802 804 807 809 811 814 816 818 819 820 821 822 822 823 823 824 824 824 822 821 819 816 814 811 809 807 803 798 794 794 793 793 794 795 796 795
765 768 774 780 786 790 795 798 800 803 805 808 811 814 816 817 818 819 820 820 820 821 822 822 822 821 820 817 815 812 809 807 802 797 793 790 789 790 789 791 791 791 790
760 764 769 775 779 784 790 794 797 800 803 806 809 811 814 815 816 817 817 818 819 820 821 820 820 820 817 815 812 810 804 800 794 791 789 786 786 785 786 785 788 787 787
751 759 765 771 776 782 787 791 794 797 800 802 805 807 810 811 814 815 815 816 817 818 819 820 820 819 817 814 811 807 801 794 789 787 788 785 783 783 781 782 781 782 784
743 751 759 766 772 777 781 785 789 791 795 798 801 803 805 808 811 812 812 812 814 816 817 819 819 818 813 812 808 805 797 791 789 786 785 784 782 781 779 778 778 779 778
736 745 753 759 765 770 774 778 784 787 792 795 798 800 802 804 806 806 807 809 813 814 815 816 817 815 814 812 812 811 801 789 785 783 782 780 779 780 779 776 776 774 772
730 736 743 751 757 762 767 774 779 784 788 791 793 795 798 800 802 804 805 808 810 811 813 814 814 814 814 811 813 816 809 801 792 779 780 777 777 775 774 773 772 771 770
727 734 740 746 751 756 761 765 768 770 775 778 782 788 791 794 796 798 800 803 805 808 811 810 811 812 813 811 809 810 812 810 803 781 773 773 774 771 770 770 767 765 763
723 728 735 741 745 749 753 754 759 765 770 774 779 784 787 790 792 793 795 798 802 804 806 807 810 810 810 808 807 809 807 808 808 801 774 766 771 769 767 765 762 758 759
717 723 729 734 739 743 746 750 751 756 763 767 772 777 781 785 786 788 790 793 796 799 802 803 805 806 805 803 801 802 803 805 803 801 792 772 770 757 760 758 755 752 749
Wind_Speed
9 5 9 8 9 8 9 11 7 5 4 4 5 6 7 7 7 7 7 5 5 6 6 7 8 9 8 7 8 8 9 10 11 11 11 10 8 8 8 8 8 7 6
11 6 8 9 8 7 8 7 8 8 8 7 6 6 8 7 8 8 8 7 7 7 7 7 7 8 9 10 9 9 10 10 11 11 12 12 8 8 9 8 9 8 6
11 7 8 9 8 8 9 7 6 5 4 4 7 6 5 6 7 8 10 11 10 9 9 9 8 6 6 8 10 10 10 10 11 12 11 10 11 8 8 10 10 9 9
12 9 8 10 10 9 8 7 8 7 7 7 7 6 4 6 7 6 4 5 5 8 8 9 10 11 10 10 8 9 10 10 11 12 12 8 11 6 9 9 9 9 9
12 7 11 11 11 12 11 10 9 9 6 7 8 8 8 9 10 9 8 7 6 7 10 11 11 11 12 10 9 9 8 10 12 12 9 10 11 10 12 13 12 11 10
12 8 12 9 10 11 11 11 11 11 10 11 9 10 10 10 10 10 9 10 10 10 11 11 11 13 14 14 14 13 15 13 12 11 9 10 11 13 13 14 14 14 13
13 9 11 11 11 11 11 10 10 10 10 10 9 9 9 9 9 10 10 11 11 11 11 11 11 13 14 14 15 15 15 13 13 14 12 14 13 13 15 16 17 15 14
16 13 10 14 13 11 9 8 8 8 7 6 6 6 7 9 9 8 9 10 10 12 12 12 13 13 14 15 15 15 16 16 17 16 16 14 13 16 17 15 17 16 15
15 15 11 11 10 8 8 8 7 6 5 5 6 7 9 8 8 8 8 9 9 10 11 12 13 14 15 15 15 16 16 17 18 19 15 12 15 16 14 16 19 21 18
14 14 14 13 10 10 8 8 9 8 7 8 9 11 12 10 9 9 10 11 12 12 12 13 13 13 12 13 15 17 17 14 12 12 11 12 12 12 13 16 18 21 20
18 17 17 15 14 11 8 8 8 9 8 8 8 9 8 4 6 7 11 13 13 15 13 15 15 15 15 15 12 14 13 11 13 14 16 16 16 18 16 16 18 22 22
23 21 19 18 17 14 9 9 7 7 6 5 4 4 5 3 6 7 9 11 13 14 14 16 16 16 18 18 18 19 17 17 16 16 17 15 18 19 19 18 19 21 24
26 24 23 21 19 17 15 13 11 9 7 6 5 5 5 3 5 6 9 11 13 15 17 18 18 18 20 20 20 20 20 20 20 18 17 18 19 21 21 21 21 23 25
30 28 26 24 23 21 20 17 14 12 10 8 7 6 5 3 4 5 8 10 12 15 16 18 18 19 19 19 20 21 20 20 22 23 23 22 21 21 22 21 22 24 26
32 32 31 26 25 23 22 17 15 14 12 11 9 8 7 4 3 3 6 8 11 13 16 17 17 18 19 19 19 20 23 24 23 23 25 25 25 22 22 23 23 24 25
33 34 32 30 27 25 23 20 19 15 15 13 11 9 8 5 3 2 4 7 10 14 16 16 16 16 17 17 19 21 23 24 25 26 27 26 25 23 22 23 23 24 25
34 34 33 31 28 26 24 22 20 19 16 16 14 11 9 6 3 1 2 4 7 11 12 13 14 15 18 19 21 23 24 25 29 30 28 28 26 24 21 20 22 24 25
30 34 33 31 30 27 26 25 22 21 19 17 15 13 10 8 5 2 0 4 8 11 13 13 14 17 19 20 23 25 24 29 32 32 28 24 22 22 22 23 23 24 24
33 34 34 31 32 30 26 25 23 21 20 18 17 14 12 9 5 2 1 4 8 10 12 13 13 16 19 23 25 25 32 31 33 25 25 24 22 21 21 21 23 24 23
34 34 34 33 31 29 27 25 23 22 21 20 18 17 14 10 6 3 1 3 7 10 11 11 14 15 17 20 24 30 28 35 23 23 22 17 18 18 19 21 21 21 24
34 35 35 34 32 32 31 29 26 27 25 22 19 18 15 11 8 5 2 4 7 9 10 11 13 16 20 19 22 22 27 13 22 13 9 12 15 17 19 15 20 19 20
37 37 36 36 35 35 35 33 23 27 23 21 19 18 16 13 11 7 4 4 6 8 9 10 11 14 16 9 11 19 4 13 4 26 33 23 14 14 20 15 17 24 28
35 39 40 38 38 37 34 31 19 25 19 21 21 20 18 16 11 7 5 4 6 9 10 10 11 12 14 18 10 7 4 3 17 6 20 24 15 17 23 31 28 23 32
30 34 36 37 38 38 35 36 37 34 26 26 32 24 21 18 13 10 6 6 7 8 10 10 10 13 14 15 13 9 12 16 4 8 4 20 28 21 21 30 31 25 30
32 36 37 37 38 37 40 42 40 34 28 23 23 26 23 17 14 10 7 7 8 9 10 11 14 16 14 14 14 15 15 15 18 9 16 11 25 28 29 31 34 33 33
33 34 36 38 38 39 41 41 41 38 30 32 32 28 23 18 14 11 9 8 9 11 10 10 14 17 17 16 17 17 18 11 10 11 8 21 21 32 29 32 32 33 33
Wind_Direction
113 106 122 101 94 87 89 83 85 74 72 70 67 55 45 35 36 40 38 29 16 27 19 17 7 8 6 3 5 7 5 357 352 348 346 338 336 344 336 329 326 333 337
119 111 121 108 111 114 96 104 92 89 85 73 55 57 55 44 43 31 40 48 38 28 18 9 2 351 344 342 348 348 348 348 343 338 344 352 358 348 324 329 330 324 314
115 106 111 112 114 128 127 119 119 114 117 91 80 78 83 63 57 50 49 50 42 39 32 26 17 356 336 334 329 329 332 336 334 331 340 2 347 324 327 327 325 315 319
123 135 116 106 100 111 120 133 142 145 114 111 103 96 91 77 66 66 49 33 26 23 21 12 11 13 12 6 340 327 321 319 322 328 338 351 324 325 339 318 316 312 319
128 145 128 116 105 100 98 97 100 107 110 89 97 87 79 76 73 63 54 36 11 354 15 15 6 359 339 336 354 349 322 319 316 322 337 326 306 322 301 305 311 311 302
139 167 139 121 108 107 106 105 104 105 99 100 92 85 76 75 69 63 53 41 27 20 14 9 346 337 327 325 322 317 316 323 315 316 311 303 302 296 302 303 300 301 307
156 169 158 137 127 120 115 112 107 102 98 101 94 89 80 68 59 52 42 33 28 22 18 9 350 338 330 325 321 315 313 312 309 306 306 308 304 296 293 298 303 300 292
169 175 168 156 146 142 141 135 128 118 115 114 101 86 69 62 55 51 42 35 27 20 16 8 359 350 337 328 320 314 309 306 300 296 297 288 287 292 291 292 295 302 300
192 178 179 182 182 188 186 176 170 159 144 125 114 98 90 75 69 55 44 36 29 23 12 4 357 351 347 345 342 332 321 312 306 300 303 302 297 291 284 290 291 292 296
194 187 182 195 181 186 189 189 177 163 139 114 101 92 73 48 45 39 36 34 31 24 17 11 6 0 357 359 354 346 349 352 344 322 297 278 275 297 288 281 286 291 293
198 196 198 195 184 198 190 174 156 132 114 100 88 87 80 64 48 28 27 31 25 24 22 10 5 360 356 353 352 336 346 333 313 308 301 298 286 288 293 284 284 288 291
198 198 202 198 191 193 193 182 173 149 145 145 134 112 108 74 54 48 32 24 23 15 15 10 7 359 352 350 347 344 340 334 336 327 316 307 292 297 297 294 288 284 288
201 204 202 204 199 198 188 193 190 182 177 172 158 144 125 107 69 44 28 18 13 6 5 360 356 352 349 345 344 338 336 333 329 324 310 301 298 305 301 297 293 288 284
199 204 205 203 199 199 198 197 191 192 187 195 182 163 150 140 77 45 24 16 8 2 359 355 352 347 344 343 339 333 331 326 322 319 316 311 306 304 302 299 297 291 286
202 201 201 198 200 197 202 190 193 193 185 195 191 174 170 159 98 51 28 15 3 355 354 351 348 345 342 338 336 331 325 323 321 319 314 314 312 307 304 302 299 295 290
204 199 197 197 197 197 195 188 191 190 188 186 195 184 174 165 137 57 24 12 358 349 351 350 346 338 334 330 328 326 323 321 319 315 312 310 306 305 303 302 299 295 292
204 196 193 193 193 196 189 189 191 189 190 192 199 194 183 179 170 118 23 6 343 342 345 342 340 337 330 331 325 323 320 317 312 311 311 308 305 305 306 301 299 297 294
200 193 190 188 190 193 190 188 191 193 190 194 198 194 189 184 186 176 28 350 337 341 345 343 343 330 326 326 321 321 316 310 309 311 309 309 308 301 298 298 299 299 299
201 190 187 186 188 189 189 192 190 193 188 193 193 192 194 194 191 197 324 338 340 345 347 343 333 322 324 324 325 313 317 316 316 317 312 312 308 307 306 313 313 309 304
196 189 187 186 188 186 185 184 185 189 189 197 196 191 199 200 197 204 271 343 341 344 342 335 317 319 318 321 317 311 317 317 311 309 306 306 316 312 313 306 309 310 308
188 183 184 184 185 185 183 179 184 191 191 198 196 198 199 197 200 212 242 325 336 331 324 317 312 312 317 331 322 320 318 317 310 316 312 303 291 287 299 311 297 302 306
179 182 184 188 190 189 191 192 189 197 201 202 197 202 201 202 207 212 238 299 311 305 306 308 310 309 312 341 330 308 314 311 213 313 303 296 297 309 297 293 298 295 298
175 181 185 189 192 192 194 192 182 179 176 180 194 201 200 207 211 220 244 287 292 300 302 301 306 307 299 304 313 292 325 304 332 307 294 297 303 301 295 298 297 294 296
181 184 187 192 193 195 193 191 189 179 171 198 202 199 201 205 207 219 239 267 279 285 285 294 291 277 281 286 308 287 273 302 328 318 222 303 304 306 302 296 297 293 289
184 188 191 194 196 195 196 199 199 200 203 204 195 190 197 202 210 220 231 248 262 266 270 276 276 281 280 283 283 288 297 287 278 271 298 295 303 297 295 292 291 291 291
188 190 193 196 198 199 201 204 205 202 190 180 180 192 197 201 206 212 218 236 249 259 272 272 266 272 282 283 281 278 274 270 278 286 291 297 297 300 296 292 287 285 284